Regional Weather Roundup
Issued by NWS

Home | Current Version | Previous Version | Graphics & Text | Print | Product List | Glossary On
Versions: 1 2 3 4 5 6 7 8 9 10 11 12 13 14 15 16 17 18 19 20 21 22 23 24 25 26 27 28 29 30 31 32 33 34 35 36 37 38 39 40 41 42 43 44 45 46 47 48 49 50
000
ASUS45 KSLC 050210
RWRUT

UTAH REGIONAL WEATHER ROUNDUP
NATIONAL WEATHER SERVICE SALT LAKE CITY UT
700 PM MST WED MAR 04 2015

UTZ001>011-023>025-050300-

NORTHERN UTAH

CITY           SKY/WX    TMP DP  RH WIND       PRES   REMARKS
BRIGHAM CITY   CLEAR     32  22  64 SE5       30.28R WCI  28
HILL AFB       CLEAR     29  15  55 S5        30.26R WCI  24
LOGAN          CLEAR     33  19  56 S7        30.25R WCI  27
OGDEN          CLEAR     32  18  56 S3        30.26R
PROVO AIRPORT  CLEAR     34  18  51 VRB6      30.27R WCI  29
SALT LAKE CITY CLEAR     36  19  50 CALM      30.28R
VERNAL         CLEAR     30  15  53 CALM      30.19R
WENDOVER       CLEAR     37  18  44 SE8       30.26R WCI  31
HEBER CITY     CLEAR     30  18  59 CALM      30.22R
WEST JORDAN    CLEAR     32  19  59 W3        30.28R

$$

UTZ012>022-026-027-050300-

SOUTHERN/CENTRAL UTAH

CITY           SKY/WX    TMP DP  RH WIND       PRES   REMARKS
BLANDING       CLEAR     30  14  51 NW9       30.25R WCI  22
BRYCE CANYON   CLEAR     19  10  68 NW10      30.20R WCI   7
CEDAR CITY     CLEAR     29  18  63 N6        30.22R WCI  23
DELTA          CLEAR     34  19  53 CALM      30.27R
HANKSVILLE     CLEAR     37  18  44 NW5       30.20R WCI  34
MILFORD        CLEAR     32  20  61 E3        30.25R
MOAB/CYNLANDS  CLEAR     35  18  49 W7        30.16R WCI  29
PRICE          CLEAR     31  12  45 NW5       30.17R WCI  26
ST GEORGE      CLEAR     46  25  42 NE12      30.23R
KANAB          CLEAR     36  23  60 NW8       30.24R WCI  29

$$

REGIONAL REPORTS     COLORADO/ARIZONA

CITY           SKY/WX    TMP DP  RH WIND       PRES   REMARKS
CRAIG, CO      CLEAR     13   3  64 SE5       30.20R WCI   5
GRAND JUNCTION CLEAR     31  17  56 NE6       30.17R WCI  25
RIFLE          CLEAR     28   7  41 NE7       30.22R WCI  21
MONTROSE       CLEAR     30  18  60 CALM      30.20R
CORTEZ         CLEAR     32  17  54 NW10      30.14R WCI  24
PAGE, AZ       CLEAR     43  16  33 SE3       30.18R
GRAND CANYON   CLEAR     24  18  77 CALM      30.19R
KINGMAN        CLEAR     45  25  45 NE9       30.16R
FLAGSTAFF      NOT AVBL

$$

REGIONAL REPORTS    NEVADA/IDAHO/WYOMING

CITY           SKY/WX    TMP DP  RH WIND       PRES   REMARKS
LAS VEGAS, NV  CLEAR     57  17  21 E6        30.16R
ELY            CLEAR     32  16  51 W3        30.22R
ELKO           CLEAR     35  15  44 SW3       30.23R
POCATELLO, ID  CLEAR     27  16  63 S6        30.24R WCI  20
EVANSTON, WY   PTCLDY    17   9  70 SW10      30.19R WCI   5
ROCK SPRINGS   CLEAR     17   7  64 W17       30.12R WCI   1

$$


USA.gov is the U.S. government's official web portal to all federal, state and local government web resources and services.